Meteo Giornale » Osservazioni meteo Germania » Spangdahlem

ore: 03:56 - Osservazioni Meteo Spangdahlem
Lat. 49° 59' N Lon. 6° 42' E Alt. 365 metri s.l.m.

nuvoloso Europe/Berlin

13 °C

Nuvoloso

Temp. 24 Ore

13 °C

23 °C

Nord-Est

14.8 Km/h

Dew point 12 °C

Umidità 93 %

Visibilità  10 Km

Il sole sorge alle ore 05:22

Il sole tramonta alle ore 21:48

Data e Ora Cielo e Fenomeni T °C DP °C Um. % Pres. hPa Vis. km Vento km/h
Oggi h: 03:56 nuvoloso Nuvoloso 13 12 93 1011 10 NE 14.8
Oggi h: 03:39 molto_nuvoloso Molto Nuvoloso 13 12 93 1011 10 NE 13
Oggi h: 02:56 molto_nuvoloso Molto Nuvoloso 13 12 93 1012 10 NE 13
Oggi h: 02:30 molto_nuvoloso Molto Nuvoloso 13 12 93 1012 10 NE 11.1
Oggi h: 02:15 molto_nuvoloso Molto Nuvoloso 13 12 93 1012 10 NE 11.1
Oggi h: 01:56 coperto_pioggia Pioggia Debole 13 12 93 1012 10 N/NE 18.5
Oggi h: 01:28 coperto_pioggia Pioggia 14 12 87 1012 10 NE 18.5
Oggi h: 01:11 coperto_pioggia Pioggia Debole 14 12 87 1012 10 E/NE 18.5
Oggi h: 00:56 coperto_pioggia Pioggia Debole 15 12 82 1012 10 E 9.3
Oggi h: 00:50 coperto_pioggia Pioggia Debole 15 11 76 1012 10 E/NE 14.8
Ieri h: 23:56 nuvoloso Nuvoloso 15 12 82 1011 10 N/NE 18.5
Ieri h: 23:43 molto_nuvoloso Molto Nuvoloso 15 12 82 1011 10 N/NE 16.7
Ieri h: 23:30 coperto_pioggia Pioviggine Leggera 15 12 82 1012 10 NE 16.7
Ieri h: 22:56 nuvoloso Nuvoloso 16 12 77 1011 10 N/NE 14.8
Ieri h: 21:56 nuvoloso Nuvoloso 16 12 77 1011 10 N/NE 14.8
Ieri h: 21:41 molto_nuvoloso Molto Nuvoloso 16 12 77 1011 10 N/NE 20.3
Ieri h: 21:11 molto_nuvoloso Molto Nuvoloso 17 12 72 1010 10 N/NE 16.7
Ieri h: 20:56 poco_nuvoloso Poco Nuvoloso 17 12 72 1010 10 N/NE 16.7
Ieri h: 19:56 sereno Sereno 20 13 64 1009 10 N/NE 20.3
Ieri h: 18:56 poco_nuvoloso Poco Nuvoloso 21 14 64 1009 10 N/NE 16.7
Ieri h: 18:26 molto_nuvoloso Molto Nuvoloso 22 15 64 1009 10 N/NE 18.5
Ieri h: 17:56 poco_nuvoloso Poco Nuvoloso 23 14 56 1009 10 N 13
Ieri h: 16:56 poco_nuvoloso Poco Nuvoloso 23 14 56 1009 10 O/NO 11.1
Ieri h: 15:56 nuvoloso Nuvoloso 23 15 60 1009 10 NO 13
Ieri h: 14:56 nuvoloso Nuvoloso 23 15 60 1009 10 O 16.7
Ieri h: 14:41 molto_nuvoloso Molto Nuvoloso 22 15 64 1009 10 O 14.8
Ieri h: 13:56 molto_nuvoloso Molto Nuvoloso 21 15 68 1009 10 O/SO 13
Ieri h: 13:26 molto_nuvoloso Molto Nuvoloso 22 15 64 1008 10 SO 22.2
Ieri h: 12:56 molto_nuvoloso Molto Nuvoloso 20 16 77 1008 10 SO 24
Ieri h: 12:26 molto_nuvoloso Molto Nuvoloso 20 16 77 1008 10 SO 24
Ieri h: 11:56 coperto Coperto 18 15 82 1008 10 S/SO 24
Ieri h: 11:11 coperto Coperto 18 15 82 1007 10 S/SO 29.6
Ieri h: 10:56 coperto Coperto 19 16 82 1007 10 S/SO 29.6
Ieri h: 09:56 coperto Coperto 17 16 93 1007 10 S/SO 24
Ieri h: 09:26 coperto Coperto 17 16 93 1007 10 S 25.9
Ieri h: 09:11 coperto Coperto 17 16 93 1007 10 S/SO 24
Ieri h: 08:56 coperto Coperto 17 16 93 1007 10 S 22.2
Ieri h: 08:11 coperto Coperto 17 16 93 1006 10 S/SO 18.5
Ieri h: 07:56 coperto Coperto 17 16 93 1006 10 S/SO 22.2
Ieri h: 06:56 coperto Coperto 17 17 100 1006 10 S 22.2
Ieri h: 05:56 coperto Coperto 17 17 100 1005 10 S 22.2
Ieri h: 05:52 coperto Coperto 17 17 100 1005 10 S 24
Ieri h: 05:37 coperto Coperto 17 17 100 1005 10 S 27.8
Ieri h: 05:22 coperto Coperto 17 17 100 1005 10 S 22.2
Ieri h: 05:17 coperto_pioggia Pioggia Debole 17 17 100 1005 10 S 20.3
Ieri h: 05:02 coperto_pioggia Pioggia Debole 17 17 100 1005 10 S 18.5
Ieri h: 04:57 coperto Coperto 17 17 100 1005 10 S 14.8
Ieri h: 04:56 coperto_pioggia Pioggia Debole 17 17 100 1005 10 S 14.8
Ieri h: 04:55 coperto_pioggia Pioggia Debole 17 17 100 1005 10 S 14.8
Ieri h: 04:40 coperto_pioggia Pioviggine Leggera 17 17 100 1005 10 S 14.8